Location: STAR School
(35.3054°N, 111.2976°W)
Time: 05:57:13
(UTC-07:00)

N. Korean satellite - Pass Details

Date: 28 October 2019
Orbit: 456 x 506 km, 97.2° (Epoch: 20 November)

Event Time Altitude Azimuth Distance (km) Brightness Sun altitude
Rises 05:25:36 0° 30° (NNE) 2,588 10.6 -16.3°
Reaches altitude 10° 05:28:12 10° 50° (NE) 1,707 10.0 -15.8°
Maximum altitude 05:30:46 18° 95° (E) 1,289 9.8 -15.3°
Drops below altitude 10° 05:33:20 10° 139° (SE) 1,707 10.0 -14.7°
Sets 05:35:56 0° 159° (SSE) 2,588 10.6 -14.2°
